Regional Weather Roundup
Issued by NWS

Home | Current Version | Previous Version | Graphics & Text | Print | Product List | Glossary On
Versions: 1 2 3 4 5 6 7 8 9 10 11 12 13 14 15 16 17 18 19 20 21 22 23 24 25 26 27 28 29 30 31 32 33 34 35 36 37 38 39 40 41 42 43 44 45 46 47 48 49 50
000
ASUS45 KCYS 282110
RWRWY

WYOMING REGIONAL WEATHER ROUNDUP
NATIONAL WEATHER SERVICE CHEYENNE WY
300 PM MDT TUE JUL 28 2015

NOTE:  "FAIR" INDICATES FEW OR NO CLOUDS BELOW 12,000 FEET
WITH NO SIGNIFICANT WEATHER AND/OR OBSTRUCTIONS TO VISIBILITY.

WYZ001-282200-
YELLOWSTONE NATIONAL PARK

CITY           SKY/WX    TMP DP  RH WIND       PRES   REMARKS
LK YELLOWSTONE   N/A     49  28  44 VRB7G17   30.42R
W YELLOWSTONE  NOT AVBL

$$
WYZ002>013-054>058-071-098>099-282200-
NORTHERN WYOMING

CITY           SKY/WX    TMP DP  RH WIND       PRES   REMARKS
JACKSON        MOSUNNY   61  27  27 W5G18     30.34S
CODY           FAIR      66  30  26 W14G26    30.22S
GREYBULL       FAIR      74  31  20 NE7       30.15S
WORLAND        FAIR      74  30  19 NW14G23   30.17R
SHERIDAN       PTSUNNY   73  36  25 NW24G36   30.12S
BUFFALO        FAIR      69  36  29 N21G30    30.18R
GILLETTE       FAIR      71  36  27 NW21G32   30.13R
HULETT         FAIR      68  37  32 W20G26    30.12R
NEWCASTLE      FAIR      70  32  24 NW18G26   30.12R

$$
WYZ014>020-022>026-101>103-282200-
CENTRAL WYOMING

CITY           SKY/WX    TMP DP  RH WIND       PRES   REMARKS
BIG PINEY      FAIR      66  18  15 VRB5      30.33F
PINEDALE       FAIR      63  25  23 W13G20    30.34F
DUBOIS         FAIR      61  27  27 N17G28    30.31S
LANDER         FAIR      73  29  19 N12       30.19S
RIVERTON       FAIR      73  19  13 W8G20     30.20S
CASPER         FAIR      75  17  11 W18G25    30.18S
DOUGLAS        FAIR      77  19  11 W21G29    30.16S

$$
WYZ021-027>030-104>119-282200-
SOUTHERN WYOMING

CITY           SKY/WX    TMP DP  RH WIND       PRES   REMARKS
EVANSTON       FAIR      67  10  11 W9G24     30.35S
KEMMERER       FAIR      64  14  14 W14G23    30.36S
FORT BRIDGER   CLEAR     70  16  12 W6G23     30.36F
ROCK SPRINGS   FAIR      68  17  14 W14G23    30.32S
DIXON          FAIR      74  25  16 SW7       30.32F
RAWLINS        FAIR      72  16  12 W20G26    30.30S
SARATOGA       FAIR      72  18  13 W17G29    30.33R
LARAMIE        FAIR      75  25  15 W26G35    30.27S
CHEYENNE       FAIR      80  32  17 CALM      30.18S
TORRINGTON     FAIR      81  25  12 NW12      30.10S
PINE BLUFFS    FAIR      81  30  16 N7G17     30.16S

$$



USA.gov is the U.S. government's official web portal to all federal, state and local government web resources and services.